When you browse on this site, cookies collect data to enhance your experience and personalize the content and advertising you see.
Visit our Privacy Policy to learn more. By continuing to use the site, you agree to this use of cookies and data.
  • In Sweden
  • List of Countries
  • For 7 days
  • Water Temperature
  • Satellite Maps
  • Weather Map
  • Weather Widgets
  • user-avatar
    Login

    Hourly Weather Annigeri

    Today, 15 December, Saturday

    Time Temperature Precipitation Wind Pressure Humidity
    00:00 +23°C° 0 mm 5 mps 708 mmHg 55%
    01:00 +22°C° 0 mm 6 mps 708 mmHg 60%
    02:00 +22°C° 0 mm 6 mps 708 mmHg 64%
    03:00 +21°C° 0 mm 6 mps 708 mmHg 67%
    04:00 +21°C° 0 mm 6 mps 708 mmHg 69%
    05:00 +20°C° 0 mm 5 mps 707 mmHg 71%
    06:00 +21°C° 0 mm 6 mps 708 mmHg 68%
    07:00 +22°C° 0 mm 7 mps 708 mmHg 65%
    08:00 +22°C° 0 mm 7 mps 709 mmHg 62%
    09:00 +24°C° 0 mm 7 mps 709 mmHg 56%
    10:00 +26°C° 0 mm 7 mps 709 mmHg 50%
    11:00 +28°C° 0 mm 7 mps 709 mmHg 43%
    12:00 +29°C° 0 mm 6 mps 708 mmHg 40%
    13:00 +29°C° 0 mm 6 mps 707 mmHg 36%
    14:00 +30°C° 0 mm 6 mps 707 mmHg 33%
    15:00 +29°C° 0 mm 5 mps 707 mmHg 35%
    16:00 +29°C° 0 mm 4 mps 707 mmHg 37%
    17:00 +28°C° 0 mm 4 mps 707 mmHg 39%
    18:00 +27°C° 0 mm 4 mps 707 mmHg 41%
    19:00 +26°C° 0 mm 4 mps 708 mmHg 43%
    20:00 +25°C° 0 mm 3 mps 708 mmHg 45%
    21:00 +25°C° 0 mm 4 mps 708 mmHg 47%
    22:00 +23°C° 0 mm 4 mps 708 mmHg 50%
    23:00 +23°C° 0 mm 5 mps 708 mmHg 52%

    Tomorrow, 16 December, Sunday

    Time Temperature Precipitation Wind Pressure Humidity
    00:00 +22°C° 0 mm 4 mps 708 mmHg 54%
    01:00 +22°C° 0 mm 4 mps 708 mmHg 57%
    02:00 +21°C° 0 mm 3 mps 708 mmHg 60%
    03:00 +21°C° 0 mm 3 mps 707 mmHg 60%
    04:00 +20°C° 0 mm 3 mps 707 mmHg 61%
    05:00 +20°C° 0 mm 3 mps 707 mmHg 62%
    06:00 +20°C° 0 mm 4 mps 708 mmHg 58%
    07:00 +21°C° 0 mm 4 mps 708 mmHg 54%
    08:00 +21°C° 0 mm 5 mps 709 mmHg 50%
    09:00 +23°C° 0 mm 5 mps 709 mmHg 45%
    10:00 +25°C° 0 mm 5 mps 709 mmHg 41%
    11:00 +26°C° 0 mm 5 mps 709 mmHg 36%
    12:00 +27°C° 0 mm 5 mps 708 mmHg 35%
    13:00 +28°C° 0 mm 4 mps 707 mmHg 33%
    14:00 +28°C° 0 mm 4 mps 707 mmHg 31%
    15:00 +28°C° 0 mm 4 mps 707 mmHg 33%
    16:00 +27°C° 0 mm 4 mps 707 mmHg 35%
    17:00 +26°C° 0 mm 4 mps 707 mmHg 37%
    18:00 +25°C° 0 mm 4 mps 707 mmHg 38%
    19:00 +23°C° 0 mm 4 mps 708 mmHg 39%
    20:00 +22°C° 0 mm 4 mps 708 mmHg 40%
    21:00 +21°C° 0 mm 4 mps 708 mmHg 41%
    22:00 +20°C° 0 mm 4 mps 708 mmHg 43%
    23:00 +19°C° 0 mm 5 mps 708 mmHg 44%

    Day after tomorrow, 17 December, Monday

    Time Temperature Precipitation Wind Pressure Humidity
    00:00 +18°C° 0 mm 4 mps 707 mmHg 46%
    01:00 +17°C° 0 mm 4 mps 707 mmHg 47%
    02:00 +17°C° 0 mm 4 mps 707 mmHg 49%
    03:00 +16°C° 0 mm 3 mps 707 mmHg 52%
    04:00 +16°C° 0 mm 3 mps 707 mmHg 54%
    05:00 +15°C° 0 mm 2 mps 707 mmHg 56%
    06:00 +16°C° 0 mm 3 mps 707 mmHg 57%
    07:00 +17°C° 0 mm 3 mps 708 mmHg 57%
    08:00 +18°C° 0 mm 3 mps 709 mmHg 58%
    09:00 +20°C° 0 mm 3 mps 709 mmHg 53%
    10:00 +22°C° 0 mm 3 mps 709 mmHg 49%
    11:00 +25°C° 0 mm 3 mps 709 mmHg 45%
    12:00 +26°C° 0 mm 3 mps 708 mmHg 40%
    13:00 +27°C° 0 mm 3 mps 707 mmHg 35%
    14:00 +28°C° 0 mm 3 mps 707 mmHg 31%
    15:00 +28°C° 0 mm 3 mps 706 mmHg 32%
    16:00 +27°C° 0 mm 3 mps 706 mmHg 33%
    17:00 +27°C° 0 mm 3 mps 706 mmHg 35%
    18:00 +25°C° 0 mm 3 mps 707 mmHg 37%
    19:00 +24°C° 0 mm 3 mps 707 mmHg 39%
    20:00 +22°C° 0 mm 3 mps 708 mmHg 41%
    21:00 +21°C° 0 mm 3 mps 708 mmHg 44%
    22:00 +21°C° 0 mm 3 mps 708 mmHg 47%
    23:00 +20°C° 0 mm 4 mps 708 mmHg 50%

    18 December, Tuesday

    Time Temperature Precipitation Wind Pressure Humidity
    00:00 +19°C° 0 mm 4 mps 708 mmHg 59%
    01:00 +19°C° 0 mm 4 mps 707 mmHg 68%
    02:00 +18°C° 0 mm 4 mps 707 mmHg 77%
    03:00 +17°C° 0 mm 4 mps 707 mmHg 80%
    04:00 +17°C° 0 mm 4 mps 707 mmHg 82%
    05:00 +15°C° 0 mm 4 mps 707 mmHg 85%
    06:00 +17°C° 0 mm 4 mps 708 mmHg 81%
    07:00 +18°C° 0 mm 4 mps 709 mmHg 78%
    08:00 +19°C° 0 mm 4 mps 709 mmHg 74%
    09:00 +21°C° 0 mm 4 mps 709 mmHg 64%
    10:00 +23°C° 0 mm 4 mps 710 mmHg 54%
    11:00 +26°C° 0 mm 4 mps 710 mmHg 44%
    12:00 +27°C° 0 mm 4 mps 709 mmHg 40%
    13:00 +27°C° 0 mm 3 mps 708 mmHg 36%
    14:00 +28°C° 0 mm 3 mps 707 mmHg 32%
    15:00 +28°C° 0 mm 3 mps 707 mmHg 33%
    16:00 +27°C° 0 mm 3 mps 707 mmHg 34%
    17:00 +27°C° 0 mm 3 mps 707 mmHg 35%
    18:00 +26°C° 0 mm 3 mps 707 mmHg 38%
    19:00 +24°C° 0 mm 3 mps 708 mmHg 40%
    20:00 +22°C° 0 mm 3 mps 708 mmHg 43%
    21:00 +21°C° 0 mm 3 mps 708 mmHg 45%
    22:00 +21°C° 0 mm 3 mps 708 mmHg 48%
    23:00 +20°C° 0 mm 4 mps 708 mmHg 50%

    19 December, Wednesday

    Time Temperature Precipitation Wind Pressure Humidity
    00:00 +20°C° 0 mm 4 mps 707 mmHg 56%
    01:00 +20°C° 0 mm 4 mps 707 mmHg 62%
    02:00 +19°C° 0 mm 4 mps 706 mmHg 68%
    03:00 +19°C° 0 mm 4 mps 706 mmHg 71%
    04:00 +18°C° 0 mm 4 mps 707 mmHg 75%
    05:00 +18°C° 0 mm 4 mps 707 mmHg 78%
    06:00 +17°C° 0 mm 5 mps 707 mmHg 75%
    07:00 +19°C° 0 mm 5 mps 708 mmHg 72%
    08:00 +20°C° 0 mm 6 mps 709 mmHg 70%
    09:00 +22°C° 0 mm 5 mps 709 mmHg 61%
    10:00 +23°C° 0 mm 5 mps 709 mmHg 53%
    11:00 +26°C° 0 mm 5 mps 709 mmHg 45%
    12:00 +27°C° 0 mm 4 mps 708 mmHg 42%
    13:00 +28°C° 0 mm 3 mps 707 mmHg 39%
    14:00 +29°C° 0 mm 2 mps 707 mmHg 35%
    15:00 +29°C° 0 mm 2 mps 707 mmHg 36%
    16:00 +28°C° 0 mm 2 mps 706 mmHg 37%
    17:00 +28°C° 0 mm 2 mps 706 mmHg 38%
    18:00 +27°C° 0 mm 2 mps 707 mmHg 40%
    19:00 +26°C° 0 mm 3 mps 707 mmHg 42%
    20:00 +24°C° 0 mm 3 mps 708 mmHg 45%
    21:00 +24°C° 0 mm 3 mps 708 mmHg 47%
    22:00 +22°C° 0 mm 3 mps 708 mmHg 49%
    23:00 +22°C° 0 mm 3 mps 708 mmHg 51%

    20 December, Thursday

    Time Temperature Precipitation Wind Pressure Humidity
    00:00 +21°C° 0 mm 3 mps 707 mmHg 52%
    01:00 +21°C° 0 mm 3 mps 707 mmHg 54%
    02:00 +20°C° 0 mm 4 mps 707 mmHg 56%
    03:00 +20°C° 0 mm 4 mps 707 mmHg 61%
    04:00 +19°C° 0 mm 4 mps 707 mmHg 67%
    05:00 +19°C° 0 mm 4 mps 707 mmHg 72%
    06:00 +20°C° 0 mm 5 mps 707 mmHg 74%
    07:00 +20°C° 0 mm 5 mps 708 mmHg 75%
    08:00 +21°C° 0 mm 6 mps 709 mmHg 76%
    09:00 +23°C° 0 mm 6 mps 709 mmHg 68%
    10:00 +26°C° 0 mm 5 mps 709 mmHg 60%
    11:00 +28°C° 0 mm 5 mps 709 mmHg 51%
    12:00 +28°C° 0 mm 5 mps 708 mmHg 48%
    13:00 +29°C° 0 mm 4 mps 707 mmHg 45%
    14:00 +30°C° 0 mm 4 mps 706 mmHg 42%
    15:00 +30°C° 0 mm 3 mps 706 mmHg 43%
    16:00 +29°C° 0 mm 3 mps 706 mmHg 44%
    17:00 +29°C° 0 mm 3 mps 706 mmHg 45%
    18:00 +28°C° 0 mm 3 mps 707 mmHg 49%
    19:00 +27°C° 0 mm 3 mps 707 mmHg 52%
    20:00 +26°C° 0 mm 3 mps 707 mmHg 56%
    21:00 +25°C° 0 mm 3 mps 707 mmHg 58%
    22:00 +25°C° 0 mm 3 mps 707 mmHg 60%
    23:00 +24°C° 0 mm 3 mps 707 mmHg 62%
    Show more